Location: Castelbiague
(43.0361°N, 0.9246°E)
Time: 16:06:14
(UTC+00:00)

Spot 4 - Pass Details

Date: 17 June 2021
Orbit: 705 x 722 km, 98.3° (Epoch: 30 July)

Event Time Altitude Azimuth Distance (km) Brightness Sun altitude
Exits shadow 22:39:07 43° 120° (ESE) 1,000 4.2 -21.2°
Maximum altitude 22:40:19 55° 72° (ENE) 854 4.2 -21.2°
Drops below altitude 10° 22:45:00 10° 356° (N) 2,188 7.5 -21.5°
Sets 22:47:17 0° 352° (N) 3,110 8.6 -21.6°
